Time,TemperatureF,DewpointF,PressureIn,WindDirection,WindDirectionDegrees,WindSpeedMPH,WindSpeedGustMPH,Humidity,HourlyPrecipIn,Conditions,Clouds,dailyrainin,SoftwareType,DateUTC
2013-01-02 00:15:00,44.7,39.0,30.17,West,281,6.0,-999.0,79,-99.99,,,0.00,weatherlink.com 1.10,2013-01-02 00:15:00,
2013-01-02 00:31:00,45.0,39.0,30.17,West,279,5.0,-999.0,79,-99.99,,,0.00,weatherlink.com 1.10,2013-01-02 00:31:00,
2013-01-02 00:46:00,45.1,39.0,30.17,West,273,9.0,-999.0,79,-99.99,,,0.00,weatherlink.com 1.10,2013-01-02 00:46:00,
2013-01-02 01:01:00,44.7,39.0,30.17,West,273,5.0,-999.0,80,-99.99,,,0.00,weatherlink.com 1.10,2013-01-02 01:01:00,
2013-01-02 01:18:00,44.9,39.0,30.17,WNW,284,7.0,-999.0,80,-99.99,,,0.00,weatherlink.com 1.10,2013-01-02 01:18:00,
2013-01-02 01:31:00,45.2,39.0,30.18,WNW,283,6.0,-999.0,80,-99.99,,,0.00,weatherlink.com 1.10,2013-01-02 01:31:00,
2013-01-02 01:46:00,45.1,40.0,30.19,WNW,291,5.0,-999.0,81,-99.99,,,0.00,weatherlink.com 1.10,2013-01-02 01:46:00,
2013-01-02 02:01:00,45.1,40.0,30.19,WNW,288,6.0,-999.0,81,-99.99,,,0.00,weatherlink.com 1.10,2013-01-02 02:01:00,
2013-01-02 02:16:00,44.6,39.0,30.20,WNW,286,4.0,-999.0,81,-99.99,,,0.00,weatherlink.com 1.10,2013-01-02 02:16:00,
2013-01-02 02:31:00,44.7,40.0,30.19,WNW,288,3.0,-999.0,82,-99.99,,,0.00,weatherlink.com 1.10,2013-01-02 02:31:00,
2013-01-02 02:46:00,44.7,40.0,30.19,WNW,288,3.0,-999.0,82,-99.99,,,0.00,weatherlink.com 1.10,2013-01-02 02:46:00,
2013-01-02 03:01:00,44.9,40.0,30.20,WNW,288,5.0,-999.0,83,-99.99,,,0.00,weatherlink.com 1.10,2013-01-02 03:01:00,
2013-01-02 03:16:00,45.2,40.0,30.21,WNW,288,4.0,-999.0,83,-99.99,,,0.00,weatherlink.com 1.10,2013-01-02 03:16:00,
2013-01-02 03:31:00,45.5,41.0,30.21,WNW,286,5.0,-999.0,83,-99.99,,,0.00,weatherlink.com 1.10,2013-01-02 03:31:00,
2013-01-02 03:46:00,45.9,41.0,30.21,WNW,283,4.0,-999.0,83,-99.99,,,0.00,weatherlink.com 1.10,2013-01-02 03:46:00,
2013-01-02 04:01:00,46.4,42.0,30.21,WNW,288,6.0,-999.0,83,-99.99,,,0.00,weatherlink.com 1.10,2013-01-02 04:01:00,
2013-01-02 04:16:00,46.6,42.0,30.22,WNW,286,6.0,-999.0,83,-99.99,,,0.00,weatherlink.com 1.10,2013-01-02 04:16:00,
2013-01-02 04:31:00,46.6,42.0,30.22,WNW,286,6.0,-999.0,83,-99.99,,,0.00,weatherlink.com 1.10,2013-01-02 04:31:00,
2013-01-02 04:46:00,47.0,42.0,30.22,WNW,294,4.0,-999.0,83,-99.99,,,0.00,weatherlink.com 1.10,2013-01-02 04:46:00,
2013-01-02 05:01:00,47.1,42.0,30.22,WNW,289,7.0,-999.0,83,-99.99,,,0.00,weatherlink.com 1.10,2013-01-02 05:01:00,
2013-01-02 05:16:00,47.2,43.0,30.22,WNW,288,6.0,-999.0,84,-99.99,,,0.00,weatherlink.com 1.10,2013-01-02 05:16:00,
2013-01-02 05:31:00,47.4,43.0,30.23,WNW,293,10.0,-999.0,83,-99.99,,,0.00,weatherlink.com 1.10,2013-01-02 05:31:00,
2013-01-02 05:46:00,47.6,43.0,30.23,WNW,294,5.0,-999.0,84,-99.99,,,0.00,weatherlink.com 1.10,2013-01-02 05:46:00,
2013-01-02 06:01:00,47.5,43.0,30.22,WNW,284,5.0,-999.0,84,-99.99,,,0.00,weatherlink.com 1.10,2013-01-02 06:01:00,
2013-01-02 06:16:00,47.5,43.0,30.22,WNW,284,2.0,-999.0,85,-99.99,,,0.00,weatherlink.com 1.10,2013-01-02 06:16:00,
2013-01-02 06:31:00,47.6,43.0,30.23,WNW,283,5.0,-999.0,85,-99.99,,,0.00,weatherlink.com 1.10,2013-01-02 06:31:00,
2013-01-02 06:46:00,47.8,44.0,30.23,West,281,2.0,-999.0,85,-99.99,,,0.00,weatherlink.com 1.10,2013-01-02 06:46:00,
2013-01-02 07:01:00,47.9,44.0,30.24,West,281,3.0,-999.0,85,-99.99,,,0.00,weatherlink.com 1.10,2013-01-02 07:01:00,
2013-01-02 07:16:00,48.2,44.0,30.24,West,280,3.0,-999.0,85,-99.99,,,0.00,weatherlink.com 1.10,2013-01-02 07:16:00,
2013-01-02 07:31:00,48.3,44.0,30.24,West,279,4.0,-999.0,85,-99.99,,,0.00,weatherlink.com 1.10,2013-01-02 07:31:00,
2013-01-02 07:46:00,48.5,45.0,30.25,West,279,3.0,-999.0,86,-99.99,,,0.00,weatherlink.com 1.10,2013-01-02 07:46:00,
2013-01-02 08:01:00,48.8,45.0,30.26,WNW,288,3.0,-999.0,86,-99.99,,,0.00,weatherlink.com 1.10,2013-01-02 08:01:00,
2013-01-02 08:15:00,49.0,45.0,30.26,WNW,286,8.0,-999.0,85,-99.99,,,0.00,weatherlink.com 1.10,2013-01-02 08:15:00,
2013-01-02 08:31:00,49.3,45.0,30.26,West,277,6.0,-999.0,85,-99.99,,,0.00,weatherlink.com 1.10,2013-01-02 08:31:00,
2013-01-02 08:46:00,49.5,45.0,30.26,West,277,11.0,-999.0,85,-99.99,,,0.00,weatherlink.com 1.10,2013-01-02 08:46:00,
2013-01-02 09:01:00,49.7,45.0,30.26,West,279,6.0,-999.0,85,-99.99,,,0.00,weatherlink.com 1.10,2013-01-02 09:01:00,
2013-01-02 09:16:00,49.9,46.0,30.26,West,280,9.0,-999.0,86,-99.99,,,0.00,weatherlink.com 1.10,2013-01-02 09:16:00,
2013-01-02 09:31:00,50.1,46.0,30.26,NW,306,10.0,-999.0,86,-99.99,,,0.00,weatherlink.com 1.10,2013-01-02 09:31:00,
2013-01-02 09:46:00,50.4,46.0,30.27,WNW,290,11.0,-999.0,86,-99.99,,,0.00,weatherlink.com 1.10,2013-01-02 09:46:00,
2013-01-02 10:01:00,50.9,47.0,30.27,NW,304,10.0,-999.0,86,-99.99,,,0.00,weatherlink.com 1.10,2013-01-02 10:01:00,
2013-01-02 10:16:00,51.5,48.0,30.27,WNW,286,12.0,-999.0,86,-99.99,,,0.00,weatherlink.com 1.10,2013-01-02 10:16:00,
2013-01-02 10:31:00,51.9,48.0,30.27,NW,305,10.0,-999.0,85,-99.99,,,0.00,weatherlink.com 1.10,2013-01-02 10:31:00,
2013-01-02 10:46:00,52.1,47.0,30.27,WNW,288,15.0,-999.0,84,-99.99,,,0.00,weatherlink.com 1.10,2013-01-02 10:46:00,
2013-01-02 11:01:00,52.2,48.0,30.28,WNW,296,10.0,-999.0,84,-99.99,,,0.00,weatherlink.com 1.10,2013-01-02 11:01:00,
2013-01-02 11:16:00,52.0,47.0,30.28,WNW,302,7.0,-999.0,84,-99.99,,,0.00,weatherlink.com 1.10,2013-01-02 11:16:00,
2013-01-02 11:31:00,51.9,47.0,30.28,WNW,288,10.0,-999.0,84,-99.99,,,0.00,weatherlink.com 1.10,2013-01-02 11:31:00,
2013-01-02 11:46:00,52.0,47.0,30.29,NW,308,5.0,-999.0,84,-99.99,,,0.00,weatherlink.com 1.10,2013-01-02 11:46:00,
2013-01-02 12:01:00,51.8,48.0,30.29,WNW,296,5.0,-999.0,85,-99.99,,,0.00,weatherlink.com 1.10,2013-01-02 12:01:00,
2013-01-02 12:15:00,51.9,48.0,30.29,WNW,292,6.0,-999.0,85,-99.99,,,0.00,weatherlink.com 1.10,2013-01-02 12:15:00,
2013-01-02 12:31:00,52.0,47.0,30.29,WNW,296,6.0,-999.0,84,-99.99,,,0.00,weatherlink.com 1.10,2013-01-02 12:31:00,
2013-01-02 12:46:00,51.9,47.0,30.29,WNW,284,6.0,-999.0,84,-99.99,,,0.00,weatherlink.com 1.10,2013-01-02 12:46:00,
2013-01-02 13:01:00,51.7,47.0,30.29,WNW,301,13.0,-999.0,84,-99.99,,,0.00,weatherlink.com 1.10,2013-01-02 13:01:00,
2013-01-02 13:16:00,51.6,47.0,30.30,WNW,291,7.0,-999.0,84,-99.99,,,0.00,weatherlink.com 1.10,2013-01-02 13:16:00,
2013-01-02 13:31:00,51.3,47.0,30.30,WNW,302,11.0,-999.0,85,-99.99,,,0.00,weatherlink.com 1.10,2013-01-02 13:31:00,
2013-01-02 13:46:00,51.3,47.0,30.30,WNW,298,11.0,-999.0,85,-99.99,,,0.00,weatherlink.com 1.10,2013-01-02 13:46:00,
2013-01-02 14:01:00,51.2,47.0,30.30,WNW,286,1.0,-999.0,85,-99.99,,,0.00,weatherlink.com 1.10,2013-01-02 14:01:00,
2013-01-02 14:16:00,51.1,47.0,30.30,WNW,288,9.0,-999.0,85,-99.99,,,0.00,weatherlink.com 1.10,2013-01-02 14:16:00,
2013-01-02 14:31:00,51.1,47.0,30.30,WNW,284,2.0,-999.0,86,-99.99,,,0.00,weatherlink.com 1.10,2013-01-02 14:31:00,
2013-01-02 14:46:00,51.1,47.0,30.31,WNW,285,5.0,-999.0,86,-99.99,,,0.00,weatherlink.com 1.10,2013-01-02 14:46:00,
2013-01-02 15:01:00,51.1,47.0,30.31,WNW,294,9.0,-999.0,86,-99.99,,,0.00,weatherlink.com 1.10,2013-01-02 15:01:00,
2013-01-02 15:16:00,51.1,47.0,30.32,WNW,283,4.0,-999.0,86,-99.99,,,0.00,weatherlink.com 1.10,2013-01-02 15:16:00,
2013-01-02 15:31:00,51.2,47.0,30.32,West,279,5.0,-999.0,86,-99.99,,,0.00,weatherlink.com 1.10,2013-01-02 15:31:00,
2013-01-02 15:46:00,51.3,47.0,30.32,West,260,10.0,-999.0,86,-99.99,,,0.00,weatherlink.com 1.10,2013-01-02 15:46:00,
2013-01-02 16:01:00,51.2,47.0,30.32,WSW,242,3.0,-999.0,86,-99.99,,,0.00,weatherlink.com 1.10,2013-01-02 16:01:00,
2013-01-02 16:15:00,51.1,47.0,30.32,West,265,5.0,-999.0,86,-99.99,,,0.00,weatherlink.com 1.10,2013-01-02 16:15:00,
2013-01-02 16:31:00,51.1,47.0,30.33,NW,306,5.0,-999.0,87,-99.99,,,0.00,weatherlink.com 1.10,2013-01-02 16:31:00,
2013-01-02 16:46:00,51.1,47.0,30.33,West,265,10.0,-999.0,87,-99.99,,,0.00,weatherlink.com 1.10,2013-01-02 16:46:00,
2013-01-02 17:01:00,51.0,47.0,30.33,West,277,7.0,-999.0,87,-99.99,,,0.00,weatherlink.com 1.10,2013-01-02 17:01:00,
2013-01-02 17:15:00,51.0,47.0,30.34,WNW,299,6.0,-999.0,87,-99.99,,,0.00,weatherlink.com 1.10,2013-01-02 17:15:00,
2013-01-02 17:30:00,51.0,47.0,30.34,West,281,14.0,-999.0,87,-99.99,,,0.00,weatherlink.com 1.10,2013-01-02 17:30:00,
2013-01-02 17:45:00,51.1,47.0,30.34,WNW,294,10.0,-999.0,87,-99.99,,,0.00,weatherlink.com 1.10,2013-01-02 17:45:00,
2013-01-02 18:00:00,51.0,47.0,30.34,WNW,284,4.0,-999.0,87,-99.99,,,0.00,weatherlink.com 1.10,2013-01-02 18:00:00,
2013-01-02 18:15:00,51.1,47.0,30.35,WNW,295,9.0,-999.0,87,-99.99,,,0.00,weatherlink.com 1.10,2013-01-02 18:15:00,
2013-01-02 18:30:00,51.1,47.0,30.34,WNW,285,3.0,-999.0,87,-99.99,,,0.00,weatherlink.com 1.10,2013-01-02 18:30:00,
2013-01-02 18:45:00,51.2,48.0,30.35,WNW,289,7.0,-999.0,87,-99.99,,,0.00,weatherlink.com 1.10,2013-01-02 18:45:00,
2013-01-02 19:00:00,51.2,48.0,30.36,NNW,334,12.0,-999.0,87,-99.99,,,0.00,weatherlink.com 1.10,2013-01-02 19:00:00,
2013-01-02 19:15:00,51.3,48.0,30.36,WNW,299,7.0,-999.0,87,-99.99,,,0.00,weatherlink.com 1.10,2013-01-02 19:15:00,
2013-01-02 19:30:00,51.5,48.0,30.36,NW,309,6.0,-999.0,87,-99.99,,,0.00,weatherlink.com 1.10,2013-01-02 19:30:00,
2013-01-02 19:45:00,51.6,48.0,30.36,NW,307,6.0,-999.0,86,-99.99,,,0.00,weatherlink.com 1.10,2013-01-02 19:45:00,
2013-01-02 20:00:00,51.7,48.0,30.36,WNW,297,5.0,-999.0,86,-99.99,,,0.00,weatherlink.com 1.10,2013-01-02 20:00:00,
2013-01-02 20:15:00,51.8,48.0,30.37,NW,306,4.0,-999.0,86,-99.99,,,0.00,weatherlink.com 1.10,2013-01-02 20:15:00,
2013-01-02 20:30:00,51.7,48.0,30.37,WNW,293,3.0,-999.0,86,-99.99,,,0.00,weatherlink.com 1.10,2013-01-02 20:30:00,
2013-01-02 20:45:00,51.7,48.0,30.38,NW,306,5.0,-999.0,86,-99.99,,,0.00,weatherlink.com 1.10,2013-01-02 20:45:00,
2013-01-02 21:15:00,51.7,48.0,30.38,WNW,299,4.0,-999.0,86,-99.99,,,0.00,weatherlink.com 1.10,2013-01-02 21:15:00,
2013-01-02 21:31:00,51.7,48.0,30.38,WNW,303,3.0,-999.0,86,-99.99,,,0.00,weatherlink.com 1.10,2013-01-02 21:31:00,
2013-01-02 21:46:00,51.7,48.0,30.39,WNW,301,5.0,-999.0,86,-99.99,,,0.00,weatherlink.com 1.10,2013-01-02 21:46:00,
2013-01-02 22:01:00,51.6,48.0,30.39,WNW,303,9.0,-999.0,87,-99.99,,,0.00,weatherlink.com 1.10,2013-01-02 22:01:00,
2013-01-02 22:16:00,51.6,48.0,30.39,WNW,300,7.0,-999.0,87,-99.99,,,0.00,weatherlink.com 1.10,2013-01-02 22:16:00,
2013-01-02 22:31:00,51.7,48.0,30.39,WNW,288,12.0,-999.0,87,-99.99,,,0.00,weatherlink.com 1.10,2013-01-02 22:31:00,
2013-01-02 22:46:00,51.7,48.0,30.39,WNW,299,11.0,-999.0,87,-99.99,,,0.00,weatherlink.com 1.10,2013-01-02 22:46:00,
2013-01-02 23:01:00,51.6,48.0,30.40,NW,309,8.0,-999.0,87,-99.99,,,0.00,weatherlink.com 1.10,2013-01-02 23:01:00,
2013-01-02 23:16:00,51.6,48.0,30.41,WNW,302,6.0,-999.0,87,-99.99,,,0.00,weatherlink.com 1.10,2013-01-02 23:16:00,
2013-01-02 23:31:00,51.7,48.0,30.42,WNW,287,6.0,-999.0,87,-99.99,,,0.00,weatherlink.com 1.10,2013-01-02 23:31:00,
2013-01-02 23:46:00,51.7,48.0,30.42,WNW,303,8.0,-999.0,87,-99.99,,,0.00,weatherlink.com 1.10,2013-01-02 23:46:00,